WXM80 ListenWXM80 Stop

You find our weather info also at:

UK Metoffice

WeatherCloud

Weather Underground

Northeastern Weather Network

AWEKAS

Citizen Weather Observer Program (CWOP)

HAMweather, WeatherForYou, PWS Weather


Weather Underground History page Text

Daily Summary for March 1, 2018 Units:  English    Metric   Both
« Previous Day
Next Day »
Daily Weekly Monthly Yearly Custom
  High: Low: Average:
Temperature: 55.4 °F 41.7 °F 48.4 °F
Dew Point: 46.4 °F 38.3 °F 41.7 °F
Humidity: 94 % 66 % 78 %
Wind Speed: 11.7 mph 0.0 mph 2.1 mph
Wind Gust: 15.0 mph - -
Wind:- - ESE
Pressure: 29.62 in 29.30 in -
Precipitation: 0.08 in    
Historical Graphs
 
 
Tabular Data for March 1, 2018
Time Temperature Dew Point Pressure Wind Wind Speed Wind Gust Humidity Rainfall Rate (Hourly)
00:02 50.7 °F 42.0 °F 29.61 in WSW 2.1 mph 3.5 mph 72 % 0.00 in
00:07 50.6 °F 42.3 °F 29.61 in WSW 1.5 mph 2.3 mph 73 % 0.00 in
00:12 50.5 °F 41.8 °F 29.61 in SW 2.2 mph 6.9 mph 72 % 0.00 in
00:17 50.5 °F 41.8 °F 29.61 in SSW 1.5 mph 5.8 mph 72 % 0.00 in
00:22 50.4 °F 41.7 °F 29.61 in South 2.3 mph 5.8 mph 72 % 0.00 in
00:27 50.3 °F 41.6 °F 29.61 in SW 1.0 mph 3.5 mph 72 % 0.00 in
00:32 50.3 °F 41.6 °F 29.61 in SW 0.6 mph 3.5 mph 72 % 0.00 in
00:37 50.3 °F 41.6 °F 29.61 in SW 2.4 mph 4.0 mph 72 % 0.00 in
00:42 50.3 °F 41.6 °F 29.61 in SW 1.9 mph 3.5 mph 72 % 0.00 in
00:47 50.3 °F 41.6 °F 29.61 in SW 1.5 mph 3.5 mph 72 % 0.00 in
00:52 50.3 °F 41.6 °F 29.61 in SW 1.6 mph 4.6 mph 72 % 0.00 in
00:57 50.3 °F 41.6 °F 29.61 in SW 0.3 mph 3.5 mph 72 % 0.00 in
01:02 50.3 °F 41.6 °F 29.61 in SW 2.9 mph 3.5 mph 72 % 0.00 in
01:07 50.3 °F 41.6 °F 29.61 in SW 1.7 mph 3.5 mph 72 % 0.00 in
01:13 50.3 °F 41.6 °F 29.61 in SW 0.6 mph 3.5 mph 72 % 0.00 in
01:18 50.4 °F 41.7 °F 29.61 in Calm     72 % 0.00 in
01:23 50.3 °F 41.6 °F 29.61 in Calm     72 % 0.00 in
01:28 50.3 °F 41.6 °F 29.62 in Calm     72 % 0.00 in
01:33 50.3 °F 41.6 °F 29.61 in Calm     72 % 0.00 in
01:38 50.2 °F 41.5 °F 29.62 in Calm     72 % 0.00 in
01:43 50.2 °F 41.5 °F 29.62 in Calm     72 % 0.00 in
01:48 50.1 °F 41.4 °F 29.62 in South 0.6 mph 2.0 mph 72 % 0.00 in
01:53 50.0 °F 41.3 °F 29.61 in South 0.1 mph 1.2 mph 72 % 0.00 in
01:58 50.0 °F 41.3 °F 29.61 in SSW 1.2 mph 2.3 mph 72 % 0.00 in
02:03 49.9 °F 41.6 °F 29.60 in SW 1.6 mph 2.3 mph 73 % 0.00 in
02:09 49.8 °F 41.5 °F 29.60 in SSW 0.3 mph 2.3 mph 73 % 0.00 in
02:14 49.7 °F 41.4 °F 29.60 in SW 0.2 mph 2.0 mph 73 % 0.00 in
02:19 49.7 °F 41.4 °F 29.60 in SW 1.5 mph 3.5 mph 73 % 0.00 in
02:24 49.7 °F 41.4 °F 29.60 in SW 1.4 mph 3.5 mph 73 % 0.00 in
02:29 49.7 °F 41.4 °F 29.59 in SW 1.3 mph 2.3 mph 73 % 0.00 in
02:34 49.8 °F 41.5 °F 29.59 in SW 0.5 mph 2.3 mph 73 % 0.00 in
02:39 49.8 °F 41.5 °F 29.59 in SSW 1.4 mph 3.5 mph 73 % 0.00 in
02:44 49.8 °F 41.5 °F 29.59 in WSW 1.6 mph 3.5 mph 73 % 0.00 in
02:49 49.8 °F 41.5 °F 29.59 in SSW 3.5 mph 4.6 mph 73 % 0.00 in
02:54 49.9 °F 41.2 °F 29.59 in SSW 1.4 mph 3.5 mph 72 % 0.00 in
02:59 49.8 °F 41.1 °F 29.59 in SW 2.6 mph 5.0 mph 72 % 0.00 in
03:04 49.8 °F 41.1 °F 29.58 in SW 4.2 mph 4.2 mph 72 % 0.00 in
03:10 49.8 °F 41.1 °F 29.58 in SW 2.0 mph 3.5 mph 72 % 0.00 in
03:15 49.7 °F 41.0 °F 29.58 in SW 2.3 mph 2.3 mph 72 % 0.00 in
03:20 49.7 °F 41.0 °F 29.58 in SW 1.7 mph 4.6 mph 72 % 0.00 in
03:21 49.7 °F 41.0 °F 29.58 in SSW 2.4 mph 4.6 mph 72 % 0.00 in
03:26 49.6 °F 40.9 °F 29.58 in SSW 1.6 mph 3.5 mph 72 % 0.00 in
03:31 49.5 °F 40.8 °F 29.58 in SW 2.4 mph 4.6 mph 72 % 0.00 in
03:32 49.5 °F 40.8 °F 29.58 in SW 0.7 mph 2.3 mph 72 % 0.00 in
03:38 49.4 °F 40.7 °F 29.58 in SW 1.0 mph 2.3 mph 72 % 0.00 in
03:43 49.3 °F 41.0 °F 29.58 in SW 0.2 mph   73 % 0.00 in
03:48 49.2 °F 40.9 °F 29.58 in SW 0.9 mph 3.0 mph 73 % 0.00 in
03:53 49.1 °F 40.8 °F 29.58 in SSW 2.5 mph 3.5 mph 73 % 0.00 in
03:58 48.9 °F 40.6 °F 29.58 in SSW 0.7 mph 2.3 mph 73 % 0.00 in
04:03 48.7 °F 40.4 °F 29.58 in Calm   1.2 mph 73 % 0.00 in
04:08 48.5 °F 40.2 °F 29.58 in Calm     73 % 0.00 in
04:13 48.3 °F 40.4 °F 29.58 in Calm     74 % 0.00 in
04:18 48.1 °F 40.2 °F 29.58 in Calm     74 % 0.00 in
04:22 47.9 °F 40.0 °F 29.58 in SSW 0.8 mph 2.3 mph 74 % 0.00 in
04:27 47.7 °F 39.8 °F 29.58 in Calm     74 % 0.00 in
04:32 47.5 °F 40.0 °F 29.58 in Calm     75 % 0.00 in
04:37 47.2 °F 40.0 °F 29.58 in SSW 1.0 mph 3.5 mph 76 % 0.00 in
04:39 47.1 °F 39.9 °F 29.58 in SSW 0.4 mph   76 % 0.00 in
04:42 47.0 °F 39.8 °F 29.58 in SSW 0.2 mph 1.2 mph 76 % 0.00 in
04:47 46.7 °F 39.9 °F 29.58 in SSW 0.1 mph 1.2 mph 77 % 0.00 in
04:52 46.5 °F 39.7 °F 29.58 in Calm     77 % 0.00 in
04:57 46.3 °F 39.8 °F 29.58 in Calm   3.5 mph 78 % 0.00 in
05:02 46.1 °F 39.6 °F 29.58 in Calm     78 % 0.00 in
05:07 46.0 °F 39.5 °F 29.58 in Calm     78 % 0.00 in
05:12 45.9 °F 39.8 °F 29.58 in Calm     79 % 0.00 in
05:18 45.8 °F 39.7 °F 29.58 in Calm   1.2 mph 79 % 0.00 in
05:23 45.7 °F 39.6 °F 29.58 in SW 1.8 mph 2.3 mph 79 % 0.00 in
05:28 45.6 °F 39.5 °F 29.58 in Calm     79 % 0.00 in
05:33 45.5 °F 39.7 °F 29.58 in Calm     80 % 0.00 in
05:38 45.5 °F 39.7 °F 29.58 in Calm     80 % 0.00 in
05:43 45.4 °F 39.6 °F 29.59 in Calm     80 % 0.00 in
05:48 45.3 °F 39.5 °F 29.59 in SW 1.0 mph 3.5 mph 80 % 0.00 in
05:53 45.2 °F 39.7 °F 29.59 in SW 1.1 mph 2.3 mph 81 % 0.00 in
05:58 45.1 °F 39.6 °F 29.59 in SW 1.3 mph 2.3 mph 81 % 0.00 in
06:03 45.0 °F 39.5 °F 29.60 in SW 0.8 mph 3.5 mph 81 % 0.00 in
06:08 44.9 °F 39.4 °F 29.60 in Calm     81 % 0.00 in
06:13 44.9 °F 39.7 °F 29.60 in Calm     82 % 0.00 in
06:15 44.8 °F 39.6 °F 29.60 in Calm     82 % 0.00 in
06:20 44.8 °F 39.6 °F 29.60 in Calm   1.2 mph 82 % 0.00 in
06:25 44.7 °F 39.5 °F 29.60 in SW 0.2 mph 2.0 mph 82 % 0.00 in
06:30 44.6 °F 39.8 °F 29.60 in SW 1.7 mph 3.5 mph 83 % 0.00 in
06:35 44.5 °F 39.7 °F 29.60 in SW 1.0 mph 3.0 mph 83 % 0.00 in
06:40 44.5 °F 39.7 °F 29.60 in Calm   1.2 mph 83 % 0.00 in
06:45 44.4 °F 39.6 °F 29.60 in Calm     83 % 0.00 in
06:50 44.2 °F 39.1 °F 29.60 in Calm     82 % 0.00 in
06:55 44.1 °F 39.0 °F 29.60 in Calm     82 % 0.00 in
07:00 43.9 °F 38.8 °F 29.60 in Calm     82 % 0.00 in
07:05 43.8 °F 38.3 °F 29.60 in Calm     81 % 0.00 in
07:10 43.7 °F 38.6 °F 29.60 in Calm     82 % 0.00 in
07:15 43.5 °F 38.4 °F 29.59 in Calm     82 % 0.00 in
07:20 43.4 °F 38.6 °F 29.59 in Calm     83 % 0.00 in
07:25 43.3 °F 38.5 °F 29.60 in Calm     83 % 0.00 in
07:30 43.4 °F 39.2 °F 29.60 in Calm     85 % 0.00 in
07:36 43.5 °F 39.6 °F 29.60 in Calm     86 % 0.00 in
07:41 43.6 °F 39.7 °F 29.62 in Calm   1.0 mph 86 % 0.00 in
07:46 43.8 °F 39.9 °F 29.62 in SW 0.2 mph 1.2 mph 86 % 0.00 in
07:51 44.0 °F 40.4 °F 29.62 in Calm     87 % 0.00 in
07:56 44.3 °F 40.7 °F 29.61 in Calm     87 % 0.00 in
08:01 44.5 °F 40.6 °F 29.61 in Calm     86 % 0.00 in
08:06 44.6 °F 40.7 °F 29.61 in Calm     86 % 0.00 in
08:11 44.9 °F 41.3 °F 29.60 in Calm     87 % 0.00 in
08:16 45.1 °F 41.5 °F 29.60 in Calm     87 % 0.00 in
08:21 45.4 °F 41.8 °F 29.60 in Calm     87 % 0.00 in
08:26 45.6 °F 42.0 °F 29.60 in Calm     87 % 0.00 in
08:31 45.8 °F 41.9 °F 29.59 in SW 0.1 mph 1.2 mph 86 % 0.00 in
08:36 46.0 °F 41.7 °F 29.60 in Calm     85 % 0.00 in
08:41 46.1 °F 41.8 °F 29.59 in Calm     85 % 0.00 in
08:46 46.3 °F 42.0 °F 29.59 in Calm     85 % 0.00 in
08:51 46.4 °F 41.8 °F 29.58 in Calm     84 % 0.00 in
08:56 46.7 °F 42.4 °F 29.59 in Calm     85 % 0.00 in
09:01 46.9 °F 42.6 °F 29.59 in SW 0.2 mph 1.2 mph 85 % 0.00 in
09:06 47.2 °F 42.9 °F 29.59 in Calm     85 % 0.00 in
09:11 47.3 °F 42.7 °F 29.59 in Calm     84 % 0.00 in
09:17 47.5 °F 42.9 °F 29.59 in Calm     84 % 0.00 in
09:22 47.8 °F 42.9 °F 29.59 in Calm     83 % 0.00 in
09:27 48.0 °F 43.1 °F 29.59 in Calm     83 % 0.00 in
09:32 48.2 °F 43.0 °F 29.60 in Calm   2.3 mph 82 % 0.00 in
09:37 48.4 °F 43.2 °F 29.60 in Calm   1.2 mph 82 % 0.00 in
09:38 48.5 °F 42.9 °F 29.60 in Calm     81 % 0.00 in
09:43 48.7 °F 42.8 °F 29.60 in Calm     80 % 0.00 in
09:48 48.7 °F 42.5 °F 29.60 in Calm   1.2 mph 79 % 0.00 in
09:53 48.7 °F 42.1 °F 29.60 in Calm     78 % 0.00 in
09:58 48.9 °F 43.0 °F 29.60 in Calm     80 % 0.00 in
10:03 49.1 °F 42.5 °F 29.60 in East 1.3 mph 3.5 mph 78 % 0.00 in
10:08 49.0 °F 42.4 °F 29.60 in East 0.6 mph 1.2 mph 78 % 0.00 in
10:14 49.0 °F 42.1 °F 29.60 in Calm     77 % 0.00 in
10:19 49.0 °F 42.1 °F 29.60 in East 1.6 mph 3.5 mph 77 % 0.00 in
10:24 48.9 °F 42.0 °F 29.59 in Calm   1.2 mph 77 % 0.00 in
10:29 49.0 °F 42.1 °F 29.59 in Calm     77 % 0.00 in
10:34 49.1 °F 42.5 °F 29.60 in Calm     78 % 0.00 in
10:39 49.3 °F 42.4 °F 29.61 in East 0.4 mph 3.5 mph 77 % 0.00 in
10:44 49.4 °F 42.1 °F 29.62 in East 0.2 mph 3.0 mph 76 % 0.00 in
10:49 49.4 °F 42.1 °F 29.62 in East 0.2 mph 2.3 mph 76 % 0.00 in
10:54 49.5 °F 42.2 °F 29.62 in Calm     76 % 0.00 in
10:59 49.7 °F 42.4 °F 29.62 in East 0.4 mph 2.3 mph 76 % 0.00 in
11:04 49.9 °F 42.6 °F 29.61 in East 0.1 mph 1.2 mph 76 % 0.00 in
11:09 50.3 °F 42.7 °F 29.60 in Calm     75 % 0.00 in
11:14 50.6 °F 42.6 °F 29.61 in Calm     74 % 0.00 in
11:19 51.0 °F 43.4 °F 29.61 in Calm     75 % 0.00 in
11:24 51.5 °F 43.5 °F 29.61 in Calm     74 % 0.00 in
11:29 51.8 °F 43.1 °F 29.61 in Calm     72 % 0.00 in
11:34 52.2 °F 43.4 °F 29.61 in Calm     72 % 0.00 in
11:39 52.7 °F 42.8 °F 29.61 in East 0.3 mph 1.2 mph 69 % 0.00 in
11:44 53.0 °F 42.7 °F 29.60 in East 1.3 mph 2.3 mph 68 % 0.00 in
11:49 53.4 °F 43.1 °F 29.60 in East 1.3 mph 3.5 mph 68 % 0.00 in
11:54 53.6 °F 43.3 °F 29.59 in East 0.6 mph 2.3 mph 68 % 0.00 in
11:59 53.7 °F 43.0 °F 29.59 in East 1.5 mph 4.6 mph 67 % 0.00 in
12:04 53.6 °F 42.9 °F 29.59 in East 1.4 mph 3.5 mph 67 % 0.00 in
12:09 53.5 °F 42.8 °F 29.59 in ENE 1.8 mph 2.3 mph 67 % 0.00 in
12:14 53.4 °F 42.7 °F 29.59 in ENE 1.3 mph 3.5 mph 67 % 0.00 in
12:20 53.4 °F 42.7 °F 29.58 in ENE 0.9 mph 2.3 mph 67 % 0.00 in
12:25 53.3 °F 42.2 °F 29.58 in ENE 1.5 mph 3.5 mph 66 % 0.00 in
12:30 53.1 °F 42.4 °F 29.57 in Calm   1.2 mph 67 % 0.00 in
12:35 53.0 °F 43.1 °F 29.57 in ENE 0.5 mph 3.5 mph 69 % 0.00 in
12:40 52.8 °F 42.9 °F 29.57 in ENE 0.4 mph 2.3 mph 69 % 0.00 in
12:45 52.8 °F 42.9 °F 29.57 in ENE 0.3 mph 1.2 mph 69 % 0.00 in
12:50 52.8 °F 43.7 °F 29.55 in ENE 2.5 mph 3.0 mph 71 % 0.00 in
12:55 52.7 °F 43.6 °F 29.55 in ENE 1.5 mph 4.0 mph 71 % 0.00 in
13:00 52.7 °F 43.9 °F 29.56 in ENE 1.4 mph 3.5 mph 72 % 0.00 in
13:05 52.6 °F 43.5 °F 29.56 in ENE 1.4 mph 3.5 mph 71 % 0.00 in
13:10 52.5 °F 43.4 °F 29.56 in ENE 1.3 mph 3.5 mph 71 % 0.00 in
13:15 52.6 °F 43.8 °F 29.56 in ENE 0.7 mph 2.3 mph 72 % 0.00 in
13:20 52.8 °F 44.4 °F 29.56 in ENE 1.0 mph 2.3 mph 73 % 0.00 in
13:25 53.3 °F 45.9 °F 29.55 in ENE 1.3 mph 3.5 mph 76 % 0.00 in
13:30 53.9 °F 45.8 °F 29.55 in East 2.1 mph 4.6 mph 74 % 0.00 in
13:35 54.5 °F 46.4 °F 29.55 in ENE 2.4 mph 4.0 mph 74 % 0.00 in
13:40 54.9 °F 46.0 °F 29.55 in ENE 2.2 mph 5.0 mph 72 % 0.00 in
13:46 55.2 °F 45.2 °F 29.54 in NE 2.4 mph 3.5 mph 69 % 0.00 in
13:51 55.4 °F 45.0 °F 29.55 in ENE 2.3 mph 3.5 mph 68 % 0.00 in
13:56 55.3 °F 45.3 °F 29.55 in ENE 1.0 mph 4.0 mph 69 % 0.00 in
14:01 55.2 °F 45.2 °F 29.55 in ENE 1.4 mph 3.5 mph 69 % 0.00 in
14:06 54.9 °F 44.9 °F 29.55 in East 1.2 mph 2.3 mph 69 % 0.00 in
14:11 54.5 °F 44.5 °F 29.54 in Calm     69 % 0.00 in
14:16 54.3 °F 44.7 °F 29.54 in East 0.2 mph 1.2 mph 70 % 0.00 in
14:21 54.2 °F 44.6 °F 29.54 in ENE 1.8 mph 4.0 mph 70 % 0.00 in
14:26 53.9 °F 44.0 °F 29.54 in ENE 0.5 mph 2.3 mph 69 % 0.00 in
14:31 53.7 °F 44.1 °F 29.54 in ENE 1.2 mph 3.5 mph 70 % 0.00 in
14:36 53.4 °F 43.9 °F 29.54 in ENE 1.3 mph 3.5 mph 70 % 0.00 in
14:41 53.2 °F 43.7 °F 29.54 in ENE 2.0 mph 4.0 mph 70 % 0.00 in
14:46 53.0 °F 43.8 °F 29.54 in ENE 0.7 mph 2.3 mph 71 % 0.00 in
14:51 52.9 °F 44.1 °F 29.54 in ENE 0.5 mph 2.0 mph 72 % 0.00 in
14:56 52.9 °F 44.1 °F 29.53 in ENE 0.9 mph 3.5 mph 72 % 0.00 in
15:01 52.8 °F 44.0 °F 29.53 in ENE 2.0 mph 3.5 mph 72 % 0.00 in
15:06 52.6 °F 43.8 °F 29.53 in ENE 2.9 mph 4.6 mph 72 % 0.00 in
15:11 52.5 °F 43.7 °F 29.52 in ENE 1.6 mph 3.5 mph 72 % 0.00 in
15:16 52.3 °F 43.5 °F 29.53 in ENE 2.8 mph 3.5 mph 72 % 0.00 in
15:21 52.2 °F 43.8 °F 29.53 in ENE 1.7 mph 3.0 mph 73 % 0.00 in
15:26 52.2 °F 43.4 °F 29.53 in NE 2.0 mph 3.5 mph 72 % 0.00 in
15:32 52.1 °F 43.3 °F 29.52 in Calm     72 % 0.00 in
15:37 52.1 °F 43.3 °F 29.52 in ENE 0.5 mph 2.3 mph 72 % 0.00 in
15:42 52.0 °F 43.6 °F 29.52 in Calm     73 % 0.00 in
15:47 52.0 °F 44.0 °F 29.53 in ENE 0.2 mph 3.5 mph 74 % 0.00 in
15:52 52.0 °F 44.0 °F 29.52 in ENE 0.3 mph 2.3 mph 74 % 0.00 in
15:57 52.0 °F 44.3 °F 29.51 in Calm     75 % 0.00 in
16:02 52.3 °F 44.6 °F 29.52 in ENE 0.4 mph 2.3 mph 75 % 0.00 in
16:07 52.4 °F 45.1 °F 29.51 in ENE 2.0 mph 3.5 mph 76 % 0.00 in
16:12 52.8 °F 45.1 °F 29.51 in East 1.6 mph 4.6 mph 75 % 0.00 in
16:17 53.1 °F 45.0 °F 29.50 in East 3.5 mph 4.6 mph 74 % 0.00 in
16:22 53.2 °F 44.8 °F 29.50 in ESE 3.4 mph 6.0 mph 73 % 0.00 in
16:27 52.9 °F 43.7 °F 29.49 in ENE 3.2 mph 4.0 mph 71 % 0.00 in
16:33 52.4 °F 44.0 °F 29.48 in ENE 2.2 mph 3.5 mph 73 % 0.00 in
16:38 52.0 °F 43.3 °F 29.48 in ENE 3.1 mph 4.6 mph 72 % 0.00 in
16:43 51.4 °F 43.0 °F 29.48 in ENE 2.6 mph 3.5 mph 73 % 0.00 in
16:48 51.0 °F 43.0 °F 29.48 in ENE 1.1 mph 3.5 mph 74 % 0.00 in
16:53 50.7 °F 42.7 °F 29.47 in ENE 2.6 mph 3.5 mph 74 % 0.00 in
16:58 50.1 °F 42.5 °F 29.48 in NE 0.3 mph 2.3 mph 75 % 0.00 in
17:03 49.9 °F 42.6 °F 29.48 in NE 1.8 mph 3.5 mph 76 % 0.00 in
17:08 49.6 °F 42.3 °F 29.47 in NE 1.2 mph 3.5 mph 76 % 0.00 in
17:13 49.3 °F 42.4 °F 29.47 in Calm     77 % 0.00 in
17:18 49.1 °F 42.2 °F 29.47 in NE 0.3 mph 2.3 mph 77 % 0.00 in
17:23 48.9 °F 42.0 °F 29.48 in NE 0.7 mph 1.2 mph 77 % 0.00 in
17:28 48.8 °F 41.9 °F 29.47 in Calm     77 % 0.00 in
17:33 48.7 °F 42.1 °F 29.47 in Calm     78 % 0.00 in
17:38 48.5 °F 42.0 °F 29.46 in ESE 1.2 mph 2.3 mph 78 % 0.00 in
17:43 48.5 °F 42.0 °F 29.46 in ENE 0.3 mph 2.3 mph 78 % 0.00 in
17:48 48.4 °F 42.2 °F 29.46 in East 1.5 mph 4.6 mph 79 % 0.00 in
17:53 48.5 °F 42.6 °F 29.45 in ENE 0.6 mph 2.3 mph 80 % 0.00 in
17:58 48.6 °F 42.4 °F 29.45 in ENE 1.1 mph 3.5 mph 79 % 0.00 in
18:03 48.7 °F 42.5 °F 29.45 in East 2.8 mph 7.0 mph 79 % 0.00 in
18:08 49.0 °F 42.8 °F 29.44 in ENE 2.6 mph 6.9 mph 79 % 0.00 in
18:13 49.3 °F 42.7 °F 29.44 in ENE 3.0 mph 4.6 mph 78 % 0.00 in
18:19 49.4 °F 42.5 °F 29.44 in ENE 3.2 mph 4.6 mph 77 % 0.00 in
18:24 49.2 °F 42.3 °F 29.44 in ENE 2.6 mph 3.5 mph 77 % 0.00 in
18:29 49.1 °F 42.2 °F 29.44 in East 2.3 mph 5.8 mph 77 % 0.00 in
18:34 49.1 °F 42.5 °F 29.44 in East 1.0 mph 3.5 mph 78 % 0.00 in
18:39 49.2 °F 43.0 °F 29.43 in East 0.3 mph 3.5 mph 79 % 0.00 in
18:44 49.5 °F 42.6 °F 29.43 in ESE 1.5 mph 5.8 mph 77 % 0.00 in
18:49 50.0 °F 42.7 °F 29.43 in East 3.9 mph 7.0 mph 76 % 0.00 in
18:54 50.8 °F 43.2 °F 29.43 in ESE 3.1 mph 4.6 mph 75 % 0.00 in
18:59 51.2 °F 43.2 °F 29.43 in East 1.0 mph 3.5 mph 74 % 0.00 in
19:04 51.4 °F 43.0 °F 29.42 in ESE 2.8 mph 6.9 mph 73 % 0.00 in
19:09 51.6 °F 43.2 °F 29.42 in East 3.1 mph 4.6 mph 73 % 0.00 in
19:14 51.8 °F 43.4 °F 29.41 in East 3.7 mph 6.9 mph 73 % 0.00 in
19:19 51.9 °F 43.5 °F 29.41 in East 3.4 mph 4.6 mph 73 % 0.00 in
19:24 51.9 °F 43.5 °F 29.41 in East 2.0 mph 3.5 mph 73 % 0.00 in
19:29 51.7 °F 43.0 °F 29.41 in NE 2.6 mph 5.0 mph 72 % 0.00 in
19:34 51.0 °F 42.3 °F 29.40 in ENE 3.2 mph 5.0 mph 72 % 0.00 in
19:39 50.2 °F 41.9 °F 29.40 in ENE 4.5 mph 6.9 mph 73 % 0.00 in
19:44 49.3 °F 41.4 °F 29.40 in ENE 2.8 mph 3.5 mph 74 % 0.00 in
19:49 48.7 °F 41.5 °F 29.40 in ENE 2.3 mph 4.0 mph 76 % 0.00 in
19:54 47.9 °F 41.0 °F 29.40 in ENE 4.2 mph 8.1 mph 77 % 0.00 in
19:59 47.0 °F 40.5 °F 29.39 in ENE 6.0 mph 9.0 mph 78 % 0.00 in
20:04 46.0 °F 40.2 °F 29.40 in ENE 4.8 mph 5.0 mph 80 % 0.00 in
20:10 45.3 °F 40.1 °F 29.39 in East 5.4 mph 6.9 mph 82 % 0.00 in
20:15 44.8 °F 40.0 °F 29.39 in East 3.9 mph 5.8 mph 83 % 0.00 in
20:20 44.6 °F 40.1 °F 29.39 in ENE 2.2 mph 4.0 mph 84 % 0.00 in
20:25 44.4 °F 40.2 °F 29.39 in ENE 3.9 mph 5.8 mph 85 % 0.00 in
20:30 44.3 °F 40.1 °F 29.39 in ENE 5.1 mph 8.1 mph 85 % 0.00 in
20:35 44.1 °F 40.2 °F 29.38 in ENE 6.0 mph 10.4 mph 86 % 0.00 in
20:40 44.0 °F 40.1 °F 29.38 in East 3.8 mph 5.0 mph 86 % 0.00 in
20:45 44.0 °F 40.4 °F 29.38 in ENE 7.3 mph 9.2 mph 87 % 0.00 in
20:50 43.8 °F 40.2 °F 29.38 in East 5.1 mph 6.9 mph 87 % 0.00 in
20:55 43.5 °F 39.9 °F 29.37 in East 5.9 mph 6.9 mph 87 % 0.00 in
21:00 43.1 °F 39.8 °F 29.37 in East 5.5 mph 6.9 mph 88 % 0.00 in
21:05 42.9 °F 39.9 °F 29.36 in East 6.5 mph 11.5 mph 89 % 0.00 in
21:10 42.7 °F 39.7 °F 29.36 in East 6.7 mph 8.1 mph 89 % 0.00 in
21:15 42.6 °F 39.9 °F 29.36 in East 6.9 mph 11.5 mph 90 % 0.00 in
21:20 42.5 °F 39.8 °F 29.36 in East 6.3 mph 9.2 mph 90 % 0.00 in
21:25 42.6 °F 40.2 °F 29.36 in East 6.2 mph 8.1 mph 91 % 0.00 in
21:30 42.7 °F 40.3 °F 29.35 in East 6.5 mph 8.1 mph 91 % 0.00 in
21:35 42.9 °F 40.5 °F 29.35 in ENE 5.5 mph 9.0 mph 91 % 0.00 in
21:40 43.0 °F 40.6 °F 29.35 in East 6.6 mph 8.1 mph 91 % 0.00 in
21:45 43.1 °F 40.7 °F 29.35 in ENE 5.3 mph 9.2 mph 91 % 0.00 in
21:50 43.0 °F 40.6 °F 29.35 in East 4.8 mph 8.1 mph 91 % 0.00 in
21:55 42.9 °F 40.5 °F 29.35 in ENE 7.3 mph 9.2 mph 91 % 0.00 in
22:00 42.8 °F 40.4 °F 29.35 in ENE 7.2 mph 9.2 mph 91 % 0.00 in
22:05 42.7 °F 40.3 °F 29.34 in ENE 6.7 mph 10.4 mph 91 % 0.00 in
22:10 42.7 °F 40.5 °F 29.34 in ENE 6.8 mph 11.5 mph 92 % 0.00 in
22:15 42.7 °F 40.5 °F 29.35 in ENE 8.7 mph 12.7 mph 92 % 0.00 in
22:20 42.7 °F 40.5 °F 29.35 in ENE 8.0 mph 13.0 mph 92 % 0.00 in
22:25 42.7 °F 40.8 °F 29.35 in ENE 8.0 mph 12.0 mph 93 % 0.00 in
22:30 42.7 °F 40.8 °F 29.35 in East 8.8 mph 11.0 mph 93 % 0.00 in
22:35 42.7 °F 40.8 °F 29.35 in ENE 9.0 mph 13.0 mph 93 % 0.00 in
22:40 42.7 °F 40.8 °F 29.35 in ENE 9.0 mph 13.0 mph 93 % 0.00 in
22:45 42.6 °F 40.7 °F 29.34 in East 10.0 mph 14.0 mph 93 % 0.00 in
22:50 42.6 °F 40.7 °F 29.34 in East 10.0 mph 15.0 mph 93 % 0.00 in
22:51 42.6 °F 40.7 °F 29.34 in East 10.0 mph 11.5 mph 93 % 0.02 in
22:56 42.6 °F 40.7 °F 29.34 in ENE 10.9 mph 15.0 mph 93 % 0.02 in
23:01 42.5 °F 40.6 °F 29.33 in East 11.7 mph 15.0 mph 93 % 0.03 in
23:06 42.5 °F 40.6 °F 29.33 in ENE 10.7 mph 15.0 mph 93 % 0.03 in
23:11 42.4 °F 40.5 °F 29.33 in East 11.1 mph 12.7 mph 93 % 0.04 in
23:16 42.3 °F 40.4 °F 29.32 in ENE 10.2 mph 11.5 mph 93 % 0.05 in
23:21 42.2 °F 40.3 °F 29.32 in ENE 10.4 mph 12.7 mph 93 % 0.06 in
23:26 42.0 °F 40.1 °F 29.31 in ENE 9.4 mph 13.8 mph 93 % 0.06 in
23:31 41.9 °F 40.0 °F 29.31 in East 9.7 mph 12.7 mph 93 % 0.07 in
23:36 41.8 °F 40.2 °F 29.30 in East 9.7 mph 11.5 mph 94 % 0.06 in
23:41 41.8 °F 40.2 °F 29.31 in East 10.1 mph 11.5 mph 94 % 0.06 in
23:47 41.8 °F 40.2 °F 29.30 in ENE 10.6 mph 12.7 mph 94 % 0.07 in
23:52 41.7 °F 40.1 °F 29.30 in East 10.8 mph 15.0 mph 94 % 0.06 in
23:57 41.8 °F 40.2 °F 29.30 in East 10.2 mph 13.8 mph 94 % 0.06 in
Crab Meadow Weather
Compliments of Weather Underground - 3 mb

Script developed by  Jim McMurry - jmcmurry@mwt.net Adapted for the template by  Wim van der Kuil - Leuven-Template.eu

Humidity: Humidity is the amount of water vapor in the air. The term "humidity" refers to relative humidity. Relative humidity is defined as the amount of water vapor in a sample of air compared to the maximum amount of water vapor the air can hold at any specific temperature in a form of 0 to 100%. Relative humidity is important in forecasting weather. Humidity indicates the likelihood of precipitation, dew, or fog. High humidity makes people feel hotter outside in the summer because it reduces the effectiveness of sweating to cool the body by preventing the evaporation of perspiration from the skin.